Regional Weather Roundup
Issued by NWS

Home | Current Version | Previous Version | Graphics & Text | Print | Product List | Glossary On
Versions: 1 2 3 4 5 6 7 8 9 10 11 12 13 14 15 16 17 18 19 20 21 22 23 24 25 26 27 28 29 30 31 32 33 34 35 36 37 38 39 40 41 42 43 44 45 46 47 48 49 50
000
ASUS43 KIND 171159
RWRIN

WEATHER ROUNDUP FOR INDIANA
NATIONAL WEATHER SERVICE INDIANAPOLIS IN
700 AM EST WED JAN 17 2018

NOTE: "FAIR" INDICATES FEW OR NO CLOUDS BELOW 12,000 FEET WITH NO
SIGNIFICANT WEATHER AND/OR OBSTRUCTIONS TO VISIBILITY.

* - STATION DOES NOT REPORT WEATHER SUCH AS PRECIPITATION OR FOG.

+ - STATION NOT QUALITY CONTROLLED BY THE NATIONAL WEATHER SERVICE.
    USE DATA WITH CAUTION...ESPECIALLY DEWPOINT AND RELATIVE
    HUMIDITY OBSERVATIONS.

INZ001>003-010>013-019-020-171300-
NORTHWEST INDIANA

CITY           SKY/WX    TMP DP  RH WIND       PRES   REMARKS
GARY /AIRPORT/ CLEAR    N/A N/A N/A W10       30.54S
KNOX *+        FAIR       1   0  92 CALM      30.52S
MONTICELLO +   FLURRIES   1  -3  85 W3        30.55R
6HR MIN TEMP:   1; 6HR MAX TEMP:  10;


$$

LMZ046-743>745-171300-
SOUTHERN LAKE MICHIGAN

STATION/POSITION TIME  TEMP    WIND        PRES    WAVE
                       AIR SEA DIR/SP/G            HT
                 (UTC) (F)     (DEG/KT/KT) (MB)    (FT)
BURNS HARBOR     1140   10     220/  8/  9 1033.9S
MICHIGAN CITY    1130   20     250/ 16/ 17   N/A

$$

INZ004-005-014>016-021>024-171300-
NORTH CENTRAL INDIANA

CITY           SKY/WX    TMP DP  RH WIND       PRES   REMARKS
GOSHEN         CLOUDY     9   6  88 CALM      30.48S FOG
6HR MIN TEMP:  -3; 6HR MAX TEMP:   9;

PERU/GRISSOM   CLEAR      2   0  91 W8        30.51S WCI -12
6HR MIN TEMP:   1; 6HR MAX TEMP:  10; 6HR PCP: TRACE;

SOUTH BEND     CLOUDY    11   8  88 SW6       30.49R WCI   1
6HR MIN TEMP:   8; 6HR MAX TEMP:  13; 6HR PCP:  0.01;


$$

INZ006>009-017-018-025>027-171300-
NORTHEAST INDIANA

CITY           SKY/WX    TMP DP  RH WIND       PRES   REMARKS
FORT WAYNE     LGT SNOW   6   4  91 SW8       30.51S VSB 3/4 WCI  -7
6HR MIN TEMP:  -2; 6HR MAX TEMP:   6; 6HR PCP: TRACE;

KENDALLVILLE + CLOUDY     4   1  88 SW3       30.47S

$$

INZ028-029-035-036-043>045-051>053-171300-
WEST CENTRAL INDIANA

CITY           SKY/WX    TMP DP  RH WIND       PRES   REMARKS
GREENCASTLE +  FAIR       1  -4  78 CALM      30.57R
LAFAYETTE      FAIR      -1  -3  91 W5        30.57R WCI -11
6HR MIN TEMP:  -1; 6HR MAX TEMP:   4;

TERRE HAUTE    FAIR      -3  -7  82 W3        30.61S
6HR MIN TEMP:  -5; 6HR MAX TEMP:   8;


$$

INZ030>032-037>040-046>048-054>057-064-065-171300-
CENTRAL INDIANA

CITY           SKY/WX    TMP DP  RH WIND       PRES   REMARKS
COLUMBUS       FLURRIES   9   3  78 SW6       30.59  WCI  -1
GREENWOOD *+   MOCLDY     6   2  84 W6        30.56S WCI  -5
INDIANAPOLIS   FAIR       0  -3  87 W9        30.55S WCI -15
6HR MIN TEMP:   0; 6HR MAX TEMP:   6; 6HR PCP: TRACE;

-EAGLE CREEK   FAIR       2  -2  83 W5        30.55R WCI  -8
6HR MIN TEMP:   2; 6HR MAX TEMP:   8; 6HR PCP: TRACE;

MT COMFORT *+  CLOUDY     5   5 100 W6        30.53S WCI  -6
SHELBYVILLE    CLOUDY     6   2  83 W5        30.55R WCI  -3
6HR MIN TEMP:   4; 6HR MAX TEMP:   8; 6HR PCP: TRACE;


$$

INZ033-034-041-042-049-050-058-059-171300-
EAST CENTRAL INDIANA

CITY           SKY/WX    TMP DP  RH WIND       PRES   REMARKS
MUNCIE         CLOUDY     8   3  80 SW5       30.51S WCI   0
6HR MIN TEMP:   6; 6HR MAX TEMP:   9; 6HR PCP: TRACE;

RICHMOND +     FLURRIES   7   5  92 W8        30.51R WCI  -6

$$

INZ060-061-067>069-081>083-085>088-171300-
SOUTHWEST INDIANA

CITY           SKY/WX    TMP DP  RH WIND       PRES   REMARKS
EVANSVILLE     CLOUDY     9   4  80 W9        30.66S WCI  -4
6HR MIN TEMP:   9; 6HR MAX TEMP:  10; 6HR PCP: TRACE;

HUNTINGBURG +  FLURRIES   9   4  80 NW9       30.63S WCI  -4
6HR MIN TEMP:   0; 6HR MAX TEMP:   9; 6HR PCP: TRACE;


$$

INZ062-063-066-070>080-084-089>092-171300-
SOUTH CENTRAL AND SOUTHEAST INDIANA

CITY           SKY/WX    TMP DP  RH WIND       PRES   REMARKS
BLOOMINGTON    FAIR       3   0  87 W3        30.57R
6HR MIN TEMP:   3; 6HR MAX TEMP:   7;

FRENCH LICK *+ CLOUDY     9   5  85 W5        30.59S WCI   0
MADISON *+     CLOUDY     9   5  85 CALM      30.59S
SEYMOUR +      FLURRIES  10   3  72 W5        30.60  WCI   2

$$





USA.gov is the U.S. government's official web portal to all federal, state and local government web resources and services.